Showing default

GALILEO 10 (206), 40890

Orbit data source: Space-Track

GALILEO 10 (206), 40890 is a payload satellite owned by GNSS Agency (ESA) that was launched on Fri, 11 Sep 2015 UTC via a SOYUZ-ST-B launch vehicle from the French Guiana (FRGUI). Payload-class satellites include a variety of spacecraft equipped with specific instruments for various scientific and technological missions. These include communications satellites like Starlink; space stations such as the ISS; scientific satellites like the Hubble; Earth observation satellites from companies like Planet Labs, Umbra, and HawkEye 360; GPS; miniature CubeSats for education and research; and military/defense satellites.

Loading next visibility...
Identifier
40890, 2015-045B
Orbit
Active
Country
Flag of ESAESA
Related business
Manufacturer
OHB
Mission
Operational Civil Navigation
Bus & Motor
GALILEOSAT, AOCS
Mass
733 kg wet, 660 kg dry
Launch date (UTC)
2015-09-11 (11 years ago)
Launch vehicle
SOYUZ-ST-B
Launch site
French Guiana (FRGUI)
Object type
Payload
Rocket body
Debris
Shape & HBR
Box + 2 Pan, 7.3 m
Radar Cross Section
9.223 m², Large (>1 m²)

Expand to show TLE details & history
Last TLE update: 19 hours ago

TLE from 19 hours ago
0 GALILEO 10 (206)
1 40890U 15045B   26127.39642078  .00000007  00000-0  00000-0 0  9990
2 40890  54.9571 222.7308 0001793  27.6644 332.3865  1.70474082 66349
Epoch: 2026-05-07T09:30Z
TLE epoch observation values (Epoch: 2026-05-07T09:30:50.755Z)
Latitude
-0.00005°
Longitude
-145.22833°
Altitude
23,217.73 km
Speed
3.67 km/s
True Right ascension
14h 50m 54s
True Declination
0° 00' 00"
Sunlit
Object was in daylight at epoch
Visualization orbit readout
Latitude
Unknown
Longitude
Unknown
Altitude
Unknown
Speed
Unknown
Apparent Right ascension
Unknown
Apparent Declination
Unknown
Sunlit
N/A
Visualization observer readout
Local Sidereal Time
12:22:36
Azimuth
Unknown
Elevation
Unknown
Doppler factor
Unknown
Orbital elements
Apogee altitude
23,227.491 km
Perigee altitude
23,216.876 km
Semi-major axis
29,600.321 km
Eccentricity
0.00018
Inclination
54.9571°
RAAN
222.7308°
Arg. of periapsis
27.6644°
True anomaly
332.37697°
Mean anomaly
332.3865°
Eccentric anomaly
332.38174°
Mean motion
0.42619 °/min
Orbital period
844.7 mins
BSTAR
0
Loading maneuver chart data...
Computing Atmospheric mass density...
Loading historical data...
Loading historical data...
Loading historical data...
Loading historical data...
Loading historical data...
Loading historical data...
Loading historical data...
Other satellites on launch #45 in the year 2015 (2015-09-11 UTC)

Documentation

Showing up to 5 results
|